[[{"header":{"parameterUnit":"m.s-1","parameterCategory":1,"la1":30.2991,"la2":30.254,"lo1":-89.0895,"lo2":-89.0444,"dy":0.0017,"dx":0.0017,"nx":28,"ny":28,"refTime":"2023-09-30T03:00:00:Z","depth":0,"parameterNumber":2,"parameterNumberName":"U-component_of_WINDS"},"data":[0,0,0,0,0,0,0,0,0,0,0,0,0,0,0,0,0,0,0,0,0,0,0,0,0,0,0,0,0,0,0,0,0,0,0,0,0,0,0,0,0,0,0,0,0,0,0,0,0,0,0,0,0,0,0,0,0,0,-3.3952,-3.3953,0,-3.4015,-3.4015,-3.4016,-3.3893,-3.3889,-3.3885,-3.3881,-3.3948,-3.3954,-3.3959,0,0,0,0,0,0,0,0,0,0,0,0,0,-3.3728,-3.3733,-3.3952,-3.3953,-3.3954,-3.4015,-3.4016,-3.4016,-3.3893,-3.3888,-3.3883,-3.3879,-3.3946,-3.3953,-3.396,0,0,0,0,0,0,0,0,0,0,0,0,0,-3.3812,-3.3734,-3.3952,-3.3899,-3.3895,-3.4014,-3.4016,-3.4017,-3.3894,-3.3888,-3.3882,-3.3876,-3.3944,-3.3952,-3.3961,-3.4135,0,0,-3.3986,-3.399,0,0,0,0,0,0,0,0,-3.3807,-3.382,-3.3906,-3.3903,-3.3899,-3.3939,-3.3961,-3.4056,-3.3896,-3.3895,-3.3881,-3.3873,-3.3951,-3.3958,-3.3983,-3.4138,-3.4141,-3.3987,-3.3992,-3.3996,-3.3998,0,0,0,0,0,0,0,-3.3801,-3.3817,-3.3977,-3.3908,-3.3903,-3.3874,-3.3879,-3.3979,-3.3956,-3.3895,-3.3886,-3.3895,-3.3947,-3.3976,-3.3984,-3.4142,-3.3987,-3.3994,-3.3999,-3.4003,-3.4443,-3.4449,0,0,0,0,0,0,-3.3802,-3.3812,-3.3975,-3.3979,-3.3837,-3.3883,-3.3888,-3.3933,-3.3955,-3.3952,-3.39,-3.3889,-3.3964,-3.3974,-3.3986,-3.4192,-3.3996,-3.4004,-3.4008,-3.4436,-3.4445,-3.4452,0,0,0,0,0,0,-3.3797,-3.3817,-3.3972,-3.3893,-3.3911,-3.3893,-3.3944,-3.3937,-3.3965,-3.3959,-3.3954,-3.3933,-3.396,-3.3974,-3.4099,-3.4193,-3.4007,-3.4015,-3.4429,-3.4439,-3.4448,-3.4606,0,0,0,0,0,0,-3.3791,-3.3816,-3.3882,-3.3896,-3.3915,-3.4084,-3.395,-3.3943,-3.398,-3.3966,-3.3988,-3.3986,-3.3956,-3.4087,-3.4107,-3.4201,-3.4022,-3.442,-3.4433,-3.4445,-3.4592,-3.462,-3.4644,0,0,0,0,0,-3.3784,-3.3925,-3.3886,-3.3906,-3.3997,-3.4089,-3.4101,-3.4062,-3.3988,-3.4054,-3.405,-3.3986,-3.4179,-3.4101,-3.4122,-3.422,-3.4414,-3.4429,-3.4444,-3.4581,-3.4615,-3.4643,0,0,0,0,0,0,-3.3924,-3.3925,-3.3883,-3.4032,-3.4061,-3.4068,-3.4151,-3.4099,-3.4151,-3.4136,-3.4087,-3.4093,-3.4228,-3.4236,-3.4149,-3.439,-3.4284,-3.4304,-3.438,-3.4413,-3.4438,-3.4434,-3.4029,0,0,0,0,0,-3.3972,-3.4046,-3.4043,-3.4175,-3.4192,-3.4169,-3.4208,-3.4176,-3.4205,-3.4217,-3.4222,-3.4253,-3.4321,-3.4367,-3.4428,-3.4592,-3.4596,-3.467,-3.4696,-3.4717,-3.4736,-3.4824,-3.4857,-3.4501,-3.4501,-3.4501,0,0,-3.4072,-3.4082,-3.4132,-3.4204,-3.4223,-3.4302,-3.4181,-3.4269,-3.4328,-3.4231,-3.4349,-3.4353,-3.4385,-3.453,-3.4594,-3.4541,-3.4835,-3.4736,-3.4753,-3.476,-3.4843,-3.4877,-3.4907,-3.4511,-3.4509,-3.4508,0,0,-3.4296,-3.431,-3.4422,-3.4443,-3.4473,-3.4457,-3.4484,-3.4499,-3.4498,-3.4615,-3.4544,-3.4613,-3.473,-3.4756,-3.4785,-3.5018,-3.4961,-3.5039,-3.5175,-3.5262,-3.529,-3.5314,-3.5399,-3.543,-3.5057,-3.5058,-3.5058,0,-3.4418,-3.4533,-3.4486,-3.458,-3.4614,-3.4528,-3.4642,-3.4665,-3.4714,-3.474,-3.4679,-3.4825,-3.484,-3.499,-3.5047,-3.5073,-3.5103,-3.5037,-3.5289,-3.5313,-3.5336,-3.5416,-3.5448,-3.5067,-3.5066,-3.5065,-3.5064,0,-3.4682,-3.4763,-3.485,-3.4899,-3.4942,-3.5045,-3.5015,-3.5065,-3.5028,-3.5019,-3.514,-3.5155,-3.5218,-3.5251,-3.5217,-3.5398,-3.5364,-3.5297,-3.519,-3.538,-3.5455,-3.5485,-3.508,-3.5077,-3.5074,-3.5072,0,0,-3.4998,-3.5018,-3.5051,-3.5073,-3.5099,-3.5161,-3.5261,-3.5322,-3.5366,-3.5403,-3.5486,-3.5587,-3.5525,-3.5558,-3.5525,-3.5601,-3.5786,-3.5524,-3.5524,-3.5574,-3.5988,-3.6041,-3.6077,-3.5748,-3.5753,-3.5758,-3.5986,0,-3.5221,-3.5392,-3.5352,-3.5521,-3.5596,-3.5515,-3.5602,-3.5628,-3.5621,-3.5685,-3.5677,-3.575,-3.5662,-3.5681,-3.5752,-3.5749,-3.5869,-3.5731,-3.5827,-3.5831,-3.5824,-3.6116,-3.6171,-3.6386,-3.6015,-3.602,-3.6024,0,-3.5505,-3.5552,-3.5728,-3.5742,-3.5772,-3.5851,-3.5904,-3.5965,-3.5993,-3.5983,-3.6019,-3.5972,-3.6071,-3.5961,-3.6098,-3.6006,-3.6042,-3.6046,-3.6053,-3.6063,-3.5941,-3.6135,-3.6453,-3.6487,-3.6069,-3.6065,-3.6062,0,-3.5721,-3.5827,-3.5947,-3.5967,-3.5986,-3.6044,-3.6054,-3.6076,-3.6115,-3.6162,-3.6187,-3.6245,-3.6278,-3.6324,-3.6294,-3.6216,-3.6437,-3.6324,-3.6433,-3.6434,-3.6486,-3.6483,-3.6817,-3.6505,-3.6505,-3.6504,-3.6504,0,-3.5976,-3.6088,-3.6044,-3.6118,-3.6241,-3.6194,-3.6317,-3.6318,-3.6338,-3.6412,-3.6344,-3.6415,-3.6369,-3.6436,-3.6413,-3.6532,-3.6546,-3.6542,-3.6535,-3.655,-3.6551,-3.6575,-3.656,-3.6513,-3.6511,-3.6509,-3.6508,0,-3.6239,-3.6213,-3.6339,-3.6346,-3.635,-3.6441,-3.6447,-3.6516,-3.6504,-3.6598,-3.6617,-3.6598,-3.6674,-3.6647,-3.6728,-3.6713,-3.6864,-3.6836,-3.6855,-3.6849,-3.6961,-3.6952,-3.7323,-3.737,-3.7027,-3.703,-3.7033,0,-3.6404,-3.6488,-3.6504,-3.6548,-3.6563,-3.6635,-3.6674,-3.6631,-3.6676,-3.6713,-3.6779,-3.6848,-3.6901,-3.7026,-3.702,-3.7082,-3.7057,-3.7183,-3.7066,-3.7079,-3.7062,-3.7058,-3.7067,-3.7207,-3.7211,-3.7215,-3.7217,0,-3.6702,-3.6685,-3.6744,-3.68,-3.6849,-3.689,-3.6926,-3.6966,-3.6925,-3.6978,-3.7054,-3.7096,-3.7178,-3.7248,-3.7304,-3.7315,-3.7261,-3.7253,-3.7282,-3.73,-3.7308,-3.7307,-3.6921,-3.7246,-3.7243,-3.7241,-3.7239,-3.7238,-3.6923,-3.6994,-3.7016,-3.7085,-3.7106,-3.7141,-3.7207,-3.7202,-3.7264,-3.7327,-3.7298,-3.7386,-3.7412,-3.7481,-3.75,-3.757,-3.7521,-3.7563,-3.7574,-3.7585,-3.7601,-3.7295,-3.7579,-3.7578,-3.7577,-3.7577,-3.7576,0,-3.7219,-3.7229,-3.7292,-3.7344,-3.7398,-3.7339,-3.7375,-3.7425,-3.7503,-3.7531,-3.7585,-3.7673,-3.774,-3.774,-3.7803,-3.7858,-3.7835,-3.7877,-3.7874,-3.7878,-3.7639,-3.7609,-3.7895,-3.7895,-3.7895,-3.7894,-3.7894,-3.7894,-3.7379,-3.7497,-3.7483,-3.7611,-3.762,-3.7705,-3.7731,-3.7764,-3.7786,-3.7887,-3.7942,-3.794,-3.7957,-3.8021,-3.8081,-3.8079,-3.8107,-3.8158,-3.8148,-3.7926,-3.7894,-3.7864,-3.7835,-3.8164,-3.8164,-3.838,-3.8382,-3.8384]},{"header":{"parameterUnit":"m.s-1","parameterCategory":1,"la1":30.2991,"la2":30.254,"lo1":-89.0895,"lo2":-89.0444,"dy":0.0017,"dx":0.0017,"nx":28,"ny":28,"refTime":"2023-09-30T03:00:00:Z","depth":0,"parameterNumber":3,"parameterNumberName":"V-component_of_WINDS"},"data":[0,0,0,0,0,0,0,0,0,0,0,0,0,0,0,0,0,0,0,0,0,0,0,0,0,0,0,0,0,0,0,0,0,0,0,0,0,0,0,0,0,0,0,0,0,0,0,0,0,0,0,0,0,0,0,0,0,0,-2.9919,-2.9918,0,-2.99,-2.9899,-2.9899,-2.9856,-2.9855,-2.9854,-2.9854,-2.9833,-2.9834,-2.9834,0,0,0,0,0,0,0,0,0,0,0,0,0,-2.9916,-2.9916,-2.9919,-2.9918,-2.9918,-2.99,-2.9899,-2.9899,-2.9856,-2.9855,-2.9854,-2.9853,-2.9833,-2.9834,-2.9834,0,0,0,0,0,0,0,0,0,0,0,0,0,-2.9909,-2.9916,-2.9919,-2.9895,-2.9892,-2.99,-2.9899,-2.9899,-2.9857,-2.9855,-2.9854,-2.9853,-2.9833,-2.9834,-2.9834,-2.9863,0,0,-2.9835,-2.9835,0,0,0,0,0,0,0,0,-2.9909,-2.9909,-2.9898,-2.9896,-2.9894,-2.9879,-2.9891,-2.9887,-2.9857,-2.987,-2.9854,-2.9852,-2.985,-2.9849,-2.9848,-2.9862,-2.9861,-2.9835,-2.9836,-2.9836,-2.9836,0,0,0,0,0,0,0,-2.991,-2.991,-2.9911,-2.9898,-2.9895,-2.9884,-2.9882,-2.989,-2.9867,-2.9869,-2.9866,-2.9864,-2.9848,-2.9848,-2.9847,-2.9861,-2.9835,-2.9836,-2.9836,-2.9836,-2.9895,-2.9897,0,0,0,0,0,0,-2.9914,-2.991,-2.9912,-2.991,-2.9898,-2.9885,-2.9882,-2.9885,-2.9867,-2.9863,-2.9865,-2.9862,-2.9847,-2.9847,-2.9846,-2.9877,-2.9836,-2.9836,-2.9836,-2.9894,-2.9896,-2.9897,0,0,0,0,0,0,-2.9914,-2.9914,-2.9912,-2.9909,-2.9908,-2.9887,-2.989,-2.9885,-2.9885,-2.9864,-2.986,-2.9869,-2.9846,-2.9846,-2.9859,-2.9876,-2.9836,-2.9837,-2.9893,-2.9895,-2.9896,-2.9941,0,0,0,0,0,0,-2.9914,-2.9915,-2.9926,-2.991,-2.9909,-2.9926,-2.9891,-2.9886,-2.9886,-2.9882,-2.9867,-2.9863,-2.9845,-2.9858,-2.9859,-2.9876,-2.9837,-2.9891,-2.9893,-2.9896,-2.9937,-2.9944,-2.9949,0,0,0,0,0,-2.9914,-2.994,-2.9927,-2.9928,-2.9923,-2.9927,-2.9926,-2.9905,-2.9887,-2.9898,-2.9885,-2.9864,-2.9874,-2.986,-2.9861,-2.9878,-2.989,-2.9893,-2.9896,-2.9935,-2.9942,-2.9949,0,0,0,0,0,0,-2.9959,-2.9937,-2.9923,-2.9944,-2.9938,-2.992,-2.9933,-2.9915,-2.9913,-2.9909,-2.9883,-2.988,-2.9896,-2.9888,-2.9873,-2.9903,-2.9878,-2.9882,-2.9908,-2.9915,-2.9921,-2.9922,-2.9837,0,0,0,0,0,-2.9971,-2.9977,-2.9958,-2.9979,-2.9976,-2.9955,-2.9956,-2.9941,-2.9933,-2.993,-2.9918,-2.991,-2.9911,-2.9913,-2.9913,-2.9936,-2.9931,-2.9948,-2.9954,-2.9959,-2.9962,-2.9971,-2.9977,-2.9907,-2.9907,-2.9907,0,0,-2.9997,-2.9986,-2.9991,-2.9987,-2.998,-2.9986,-2.9953,-2.9961,-2.9965,-2.9931,-2.9942,-2.9933,-2.9923,-2.994,-2.9947,-2.9934,-2.998,-2.9963,-2.9967,-2.9967,-2.9974,-2.9981,-2.9987,-2.9909,-2.9908,-2.9908,0,0,-3.0046,-3.0039,-3.0054,-3.0048,-3.0038,-3.0023,-3.0027,-3.0011,-3.0004,-3.0015,-2.9989,-2.9992,-2.9996,-2.9989,-2.9986,-3.0031,-3.001,-3.0032,-3.0062,-3.0071,-3.0077,-3.0081,-3.0095,-3.0101,-3.0035,-3.0035,-3.0035,0,-3.0079,-3.0087,-3.0065,-3.0073,-3.0072,-3.0041,-3.0055,-3.005,-3.0041,-3.004,-3.0025,-3.0027,-3.0019,-3.0033,-3.0044,-3.0043,-3.0045,-3.0033,-3.0078,-3.0082,-3.0086,-3.0099,-3.0105,-3.0037,-3.0037,-3.0037,-3.0037,0,-3.0127,-3.0133,-3.0146,-3.0137,-3.0137,-3.0149,-3.0127,-3.0129,-3.0113,-3.01,-3.011,-3.0099,-3.0095,-3.0097,-3.0082,-3.0109,-3.0101,-3.0083,-3.0057,-3.0096,-3.0107,-3.0112,-3.0041,-3.004,-3.0039,-3.0039,0,0,-3.0204,-3.0181,-3.0186,-3.0181,-3.0167,-3.017,-3.018,-3.0176,-3.0178,-3.0172,-3.0178,-3.0181,-3.0163,-3.016,-3.0144,-3.0152,-3.0185,-3.0132,-3.0132,-3.0141,-3.0211,-3.0224,-3.023,-3.0172,-3.0173,-3.0174,-3.0211,0,-3.0248,-3.0264,-3.0243,-3.0262,-3.0266,-3.0236,-3.0244,-3.0236,-3.0224,-3.0225,-3.0211,-3.0212,-3.019,-3.0188,-3.0195,-3.018,-3.0199,-3.0177,-3.0176,-3.0176,-3.0178,-3.0237,-3.0251,-3.0287,-3.0216,-3.0217,-3.0217,0,-3.0302,-3.0298,-3.0318,-3.03,-3.0301,-3.0309,-3.0303,-3.0305,-3.0294,-3.0284,-3.0279,-3.026,-3.0266,-3.0242,-3.025,-3.0236,-3.0234,-3.0227,-3.0227,-3.0225,-3.0198,-3.0234,-3.0298,-3.0303,-3.0225,-3.0224,-3.0224,0,-3.0354,-3.0354,-3.0365,-3.0361,-3.0342,-3.0347,-3.0339,-3.0327,-3.0326,-3.032,-3.0318,-3.0314,-3.0311,-3.0308,-3.0287,-3.0271,-3.0296,-3.0271,-3.0287,-3.0287,-3.0293,-3.0292,-3.0355,-3.0295,-3.0295,-3.0294,-3.0294,0,-3.0405,-3.0417,-3.0387,-3.0394,-3.0407,-3.0382,-3.0395,-3.0384,-3.0374,-3.0377,-3.0351,-3.0355,-3.0327,-3.0327,-3.0311,-3.0319,-3.0318,-3.0309,-3.0304,-3.0311,-3.0312,-3.0308,-3.0305,-3.0296,-3.0296,-3.0295,-3.0295,0,-3.0464,-3.0445,-3.0454,-3.0435,-3.043,-3.044,-3.0423,-3.0428,-3.0413,-3.0417,-3.0417,-3.0394,-3.0393,-3.0372,-3.0366,-3.0355,-3.0368,-3.0359,-3.0372,-3.0368,-3.0385,-3.0383,-3.0446,-3.0452,-3.039,-3.0391,-3.0391,0,-3.0497,-3.0506,-3.0487,-3.0487,-3.048,-3.0481,-3.0479,-3.0455,-3.0454,-3.0441,-3.0447,-3.0443,-3.0439,-3.0438,-3.042,-3.0415,-3.0405,-3.0427,-3.0404,-3.0409,-3.0403,-3.0402,-3.0401,-3.0432,-3.0433,-3.0433,-3.0434,0,-3.0557,-3.0546,-3.0545,-3.0539,-3.0537,-3.0531,-3.0524,-3.0526,-3.0499,-3.0498,-3.0496,-3.0493,-3.0486,-3.0482,-3.0474,-3.0464,-3.0444,-3.0441,-3.0444,-3.045,-3.0456,-3.0451,-3.0383,-3.044,-3.0439,-3.0439,-3.0439,-3.0438,-3.0603,-3.0608,-3.0595,-3.0593,-3.0585,-3.0579,-3.0581,-3.0567,-3.0565,-3.0558,-3.0543,-3.0543,-3.053,-3.0516,-3.0508,-3.0507,-3.0495,-3.05,-3.0501,-3.0502,-3.0505,-3.0458,-3.0506,-3.0505,-3.0505,-3.0505,-3.0505,0,-3.0659,-3.0649,-3.0648,-3.0638,-3.0636,-3.0618,-3.0608,-3.0607,-3.0607,-3.0597,-3.0593,-3.059,-3.0585,-3.0567,-3.056,-3.0562,-3.0553,-3.0561,-3.056,-3.0558,-3.0517,-3.0514,-3.0569,-3.0569,-3.0569,-3.0569,-3.0569,-3.0569,-3.0689,-3.0697,-3.0684,-3.0687,-3.0677,-3.0676,-3.0672,-3.0665,-3.0656,-3.0654,-3.065,-3.0638,-3.0624,-3.0616,-3.061,-3.0605,-3.0602,-3.0614,-3.0605,-3.0567,-3.0561,-3.0555,-3.0552,-3.0614,-3.0614,-3.0646,-3.0646,-3.0646]}]]